Gerd Maersk — OYGM2 — position and weather

sailwx.info

Track history (hours):
 
Tides and Currents Weather Stations Pressure Air Temp Water Temp Dewpoint Dewpoint Depression Visibility Wind Speed Wind Dir Waves Ship Positions

Gerd Maersk

Last reported at 2014-Aug-29 02:33 UTC. Time now 2014-Aug-29 03:33 UTC.
Position N 29°47' E 122°27'.

Length 367 m; draft 12.5 m.

Type: Ship (hazmat cat A). MMSI: 220415000.

Date/timePositionNaut miles runAvg speedWind from/ knotsBaromVisibWave heightAir tempDewpointWater temp
2014-Aug-29 02:33N 29°47' E 122°27'7 7.4
2014-Aug-29 01:34N 29°50' E 122°35'8 8.1
2014-Aug-29 00:33N 29°54' E 122°43'1816.4
2014-Aug-28 23:29N 30°06' E 122°58'3315.6
2014-Aug-28 21:20N 30°40' E 123°03'1316.2
2014-Aug-28 20:33N 30°52' E 123°01'2216.3
2014-Aug-28 19:14N 31°14' E 122°59'30913.4
2014-Aug-27 20:04N 35°58' E 120°34'510.4
2014-Aug-27 19:33N 35°59' E 120°28'1010.2
2014-Aug-27 18:33N 36°02' E 120°15'3 0.2
2014-Aug-27 03:13N 36°00' E 120°12'3 0.4
2014-Aug-26 21:12N 36°02' E 120°15'7 9.6
2014-Aug-26 20:29N 36°01' E 120°23'5 5.6
2014-Aug-26 19:33N 36°00' E 120°30'6 5.5
2014-Aug-26 18:33N 35°59' E 120°36'7 6.3
2014-Aug-26 17:29N 35°57' E 120°44'15 6.7
2014-Aug-26 15:19N 35°45' E 120°55'810.0
2014-Aug-26 14:33N 35°39' E 121°00'11 8.9
2014-Aug-26 13:22N 35°33' E 121°11'  
Track history (hours):
 
Tides and Currents Weather Stations Pressure Air Temp Water Temp Dewpoint Dewpoint Depression Visibility Wind Speed Wind Dir Waves Ship Positions

Gerd Maersk

Last reported at 2014-Aug-29 02:33 UTC. Time now 2014-Aug-29 03:33 UTC.
Position N 29°47' E 122°27'.

Length 367 m; draft 12.5 m.

Type: Ship (hazmat cat A). MMSI: 220415000.

Date/timePositionNaut miles runAvg speedWind from/ knotsBaromVisibWave heightAir tempDewpointWater temp
2014-Aug-29 02:33N 29°47' E 122°27'7 7.4
2014-Aug-29 01:34N 29°50' E 122°35'8 8.1
2014-Aug-29 00:33N 29°54' E 122°43'1816.4
2014-Aug-28 23:29N 30°06' E 122°58'3315.6
2014-Aug-28 21:20N 30°40' E 123°03'1316.2
2014-Aug-28 20:33N 30°52' E 123°01'2216.3
2014-Aug-28 19:14N 31°14' E 122°59'30913.4
2014-Aug-27 20:04N 35°58' E 120°34'510.4
2014-Aug-27 19:33N 35°59' E 120°28'1010.2
2014-Aug-27 18:33N 36°02' E 120°15'3 0.2
2014-Aug-27 03:13N 36°00' E 120°12'3 0.4
2014-Aug-26 21:12N 36°02' E 120°15'7 9.6
2014-Aug-26 20:29N 36°01' E 120°23'5 5.6
2014-Aug-26 19:33N 36°00' E 120°30'6 5.5
2014-Aug-26 18:33N 35°59' E 120°36'7 6.3
2014-Aug-26 17:29N 35°57' E 120°44'15 6.7
2014-Aug-26 15:19N 35°45' E 120°55'810.0
2014-Aug-26 14:33N 35°39' E 121°00'11 8.9
2014-Aug-26 13:22N 35°33' E 121°11'  

Dump ship's entire track history